Location: Unspecified
(43.4680°N, 87.1740°E)
Time: 20:49:06
(UTC+00:00)

Lacrosse 5 rocket - Pass Details

Date: 17 April 2021
Orbit: 460 x 634 km, 57.0° (Epoch: 11 May)

Event Time Altitude Azimuth Distance (km) Brightness Sun altitude
Rises 16:26:23 0° 309° (NW) 2,757 5.9 -30.8°
Reaches altitude 10° 16:29:32 10° 335° (NNW) 1,900 4.9 -31.1°
Maximum altitude 16:31:56 14° 9° (N) 1,657 4.3 -31.3°
Enters shadow 16:33:36 12° 33° (NNE) 1,804 4.2 -31.5°
